Kimball, NE

11:44 AM MDT on September 25, 2016 (GMT -0600)
Kimball Municipal-Arraj

Weather History for KIBM - June, 2012

Change the Weather History Date:

Sunday, June 24, 2012

  Actual Average (KSNY) Record (KSNY)
Temperature  
Mean Temperature 76 °F 71 °F  
Max Temperature 99 °F 86 °F 102 °F (2012)
Min Temperature 54 °F 56 °F 37 °F (1993)
Degree Days  
Heating Degree Days 0 1  
Month to date heating degree days 55  
Since 1 June heating degree days 55  
Since 1 July heating degree days 6217  
Cooling Degree Days 12 7  
Month to date cooling degree days 92  
Year to date cooling degree days 114  
Since 1 June cooling degree days 92  
Growing Degree Days 26 (Base 50)    
Moisture  
Dew Point 51 °F    
Average Humidity 44    
Maximum Humidity 82    
Minimum Humidity 10    
Precipitation  
Precipitation 0.00 in 0.10 in 0.86 in (1969)
Month to date precipitation 2.64  
Year to date precipitation 9.40  
Sea Level Pressure  
Sea Level Pressure 30.02 in    
Wind  
Wind Speed 8 mph (ENE)    
Max Wind Speed 21 mph    
Max Gust Speed 26 mph    
Visibility 10 miles    
Events Thunderstorm    
T = Trace of Precipitation, MM = Missing Value Source: NWS Daily Summary

Daily Weather History Graph

Daily Weather History Graph

Search for Another Location

Airport or City:

Trip Planner

Search our weather history database for the weather conditions in past years. The results will help you decide how hot, cold, wet, or windy it might be!

Date:

Astronomy

Jun. 24, 2012 Rise Set
Actual Time 6:23 AM CDT 9:31 PM CDT
Civil Twilight 5:49 AM CDT 10:05 PM CDT
Nautical Twilight 5:05 AM CDT 10:48 PM CDT
Astronomical Twilight 4:14 AM CDT 11:39 PM CDT
Moon 11:34 AM CDT (6/24) No Moon Set
Length of Visible Light 16h 16m
Length of Day
15h 08m
Waxing Crescent, 25% of the Moon is Illuminated
Jun 24
Waxing Crescent
Jun 26
First Quarter
Jul 3
Full
Jul 10
Last Quarter
Jul 18
New

Hourly Weather History & Observations

Time (CDT) Temp. Heat Index Dew Point Humidity Pressure Visibility Wind Dir Wind Speed Gust Speed Precip Events Conditions
12:15 AM 70.3 °F - 44.1 °F 39% 29.93 in 10.0 mi SE 6.9 mph - N/A   Clear
12:35 AM 70.7 °F - 45.7 °F 41% 29.93 in 10.0 mi SE 4.6 mph - N/A   Clear
12:55 AM 70.9 °F - 48.0 °F 44% 29.93 in 10.0 mi SE 4.6 mph - N/A   Clear
1:15 AM 68.4 °F - 48.2 °F 48% 29.93 in 10.0 mi SSE 5.8 mph - N/A   Clear
1:35 AM 67.1 °F - 49.3 °F 53% 29.93 in 10.0 mi SE 8.1 mph - N/A   Clear
1:55 AM 66.7 °F - 49.1 °F 53% 29.93 in 10.0 mi SE 8.1 mph - N/A   Clear
2:15 AM 66.7 °F - 50.0 °F 55% 29.93 in 10.0 mi SE 8.1 mph - N/A   Clear
2:35 AM 64.9 °F - 49.6 °F 58% 29.92 in 10.0 mi ESE 6.9 mph - N/A   Clear
2:55 AM 63.1 °F - 49.8 °F 62% 29.93 in 10.0 mi Calm Calm - N/A   Clear
3:15 AM 64.4 °F - 51.4 °F 63% 29.93 in 10.0 mi SE 6.9 mph - N/A   Clear
3:35 AM 62.2 °F - 51.1 °F 67% 29.93 in 10.0 mi ESE 4.6 mph - N/A   Clear
3:55 AM 62.8 °F - 52.3 °F 69% 29.93 in 10.0 mi Calm Calm - N/A   Clear
4:15 AM 64.4 °F - 53.6 °F 68% 29.95 in 10.0 mi West 10.4 mph - N/A   Clear
4:35 AM 63.1 °F - 52.2 °F 67% 29.94 in 10.0 mi WNW 6.9 mph - N/A   Clear
4:55 AM 61.0 °F - 51.6 °F 71% 29.94 in 10.0 mi Calm Calm - N/A   Clear
5:15 AM 57.7 °F - 50.0 °F 75% 29.96 in 10.0 mi Calm Calm - N/A   Clear
5:35 AM 57.9 °F - 49.3 °F 73% 29.96 in 10.0 mi Calm Calm - N/A   Clear
5:55 AM 57.9 °F - 49.3 °F 73% 29.97 in 10.0 mi West 4.6 mph - N/A   Clear
6:15 AM 55.6 °F - 48.6 °F 77% 29.98 in 10.0 mi North 3.5 mph - N/A   Clear
6:35 AM 54.3 °F - 48.2 °F 80% 29.98 in 10.0 mi NE 3.5 mph - N/A   Clear
6:55 AM 59.0 °F - 50.0 °F 72% 30.00 in 10.0 mi NW 8.1 mph - N/A   Clear
7:15 AM 59.0 °F - 49.5 °F 71% 30.01 in 10.0 mi Calm Calm - N/A   Clear
7:35 AM 60.1 °F - 50.2 °F 70% 30.00 in 10.0 mi North 9.2 mph - N/A   Clear
7:55 AM 66.7 °F - 57.9 °F 73% 30.01 in 10.0 mi NNE 8.1 mph - N/A   Clear
8:15 AM 67.6 °F - 57.4 °F 70% 30.02 in 10.0 mi Calm Calm - N/A   Clear
8:35 AM 69.3 °F - 58.8 °F 69% 30.03 in 10.0 mi NE 10.4 mph - N/A   Clear
8:55 AM 69.1 °F - 59.4 °F 71% 30.04 in 10.0 mi ENE 10.4 mph - N/A   Clear
9:15 AM 69.3 °F - 61.5 °F 76% 30.04 in 10.0 mi ENE 9.2 mph - N/A   Clear
9:35 AM 68.0 °F - 62.4 °F 82% 30.07 in 7.0 mi NNE 5.8 mph - N/A   Scattered Clouds
9:55 AM 69.6 °F - 62.4 °F 78% 30.08 in 7.0 mi Calm Calm - N/A   Scattered Clouds
10:15 AM 72.0 °F - 62.2 °F 71% 30.07 in 10.0 mi NE 3.5 mph - N/A   Clear
10:35 AM 73.4 °F - 62.6 °F 69% 30.07 in 10.0 mi NE 5.8 mph - N/A   Clear
10:55 AM 76.8 °F - 62.1 °F 60% 30.07 in 10.0 mi NE 3.5 mph - N/A   Clear
11:15 AM 79.3 °F - 60.8 °F 53% 30.07 in 10.0 mi ENE 8.1 mph - N/A   Clear
11:35 AM 81.3 °F 81.9 °F 60.3 °F 49% 30.07 in 10.0 mi NE 5.8 mph - N/A   Clear
11:55 AM 84.2 °F 83.3 °F 57.0 °F 39% 30.07 in 10.0 mi NNE 8.1 mph - N/A   Clear
12:15 PM 87.6 °F 85.9 °F 55.6 °F 33% 30.06 in 10.0 mi NNE 11.5 mph - N/A   Clear
12:35 PM 88.9 °F - 50.9 °F 27% 30.06 in 10.0 mi North 9.2 mph - N/A   Clear
12:55 PM 92.1 °F - 46.9 °F 21% 30.06 in 10.0 mi NE 9.2 mph - N/A   Clear
1:15 PM 93.7 °F - 47.3 °F 20% 30.06 in 10.0 mi NNE 10.4 mph - N/A   Clear
1:35 PM 93.9 °F - 47.8 °F 21% 30.06 in 10.0 mi NE 11.5 mph - N/A   Clear
1:55 PM 96.1 °F - 46.4 °F 18% 30.06 in 10.0 mi NE 10.4 mph 16.1 mph N/A   Clear
2:15 PM 95.5 °F - 48.4 °F 20% 30.05 in 10.0 mi NE 10.4 mph - N/A   Clear
2:55 PM 98.1 °F - 39.0 °F 13% 30.04 in 10.0 mi ENE 12.7 mph 21.9 mph N/A   Clear
3:15 PM 98.1 °F - 40.5 °F 14% 30.04 in 10.0 mi NNE 15.0 mph 18.4 mph N/A   Clear
3:35 PM 98.8 °F - 42.4 °F 14% 30.04 in 10.0 mi ENE 17.3 mph - N/A   Clear
3:55 PM 98.6 °F - 41.7 °F 14% 30.04 in 10.0 mi NE 15.0 mph 24.2 mph N/A   Clear
4:15 PM 99.1 °F - 38.8 °F 12% 30.04 in 10.0 mi East 17.3 mph 26.5 mph N/A   Clear
4:35 PM 99.5 °F - 34.3 °F 10% 30.04 in 10.0 mi ENE 12.7 mph 20.7 mph N/A   Clear
4:55 PM 99.0 °F - 36.5 °F 11% 30.03 in 10.0 mi ENE 16.1 mph 19.6 mph N/A   Clear
5:15 PM 98.6 °F - 41.4 °F 14% 30.03 in 10.0 mi East 15.0 mph 23.0 mph N/A   Clear
5:35 PM 98.6 °F - 45.1 °F 16% 30.02 in 10.0 mi ENE 12.7 mph - N/A   Clear
5:55 PM 98.4 °F - 44.2 °F 16% 30.02 in 10.0 mi East 12.7 mph 17.3 mph N/A   Clear
6:15 PM 97.9 °F - 43.2 °F 15% 30.02 in 10.0 mi NE 12.7 mph 21.9 mph N/A   Clear
6:35 PM 97.9 °F - 45.5 °F 17% 30.02 in 10.0 mi NE 16.1 mph 19.6 mph N/A   Clear
6:55 PM 94.3 °F - 46.6 °F 19% 30.02 in 10.0 mi ENE 10.4 mph 18.4 mph N/A   Clear
7:15 PM 93.0 °F - 48.4 °F 22% 30.02 in 10.0 mi NE 11.5 mph - N/A   Clear
7:35 PM 91.9 °F - 49.1 °F 23% 30.02 in 10.0 mi NE 10.4 mph - N/A   Clear
7:55 PM 90.1 °F - 49.8 °F 25% 30.02 in 10.0 mi NE 9.2 mph - N/A   Clear
8:15 PM 89.6 °F - 49.5 °F 25% 30.02 in 10.0 mi NE 10.4 mph - N/A Thunderstorm Thunderstorm
8:35 PM 87.8 °F - 50.4 °F 27% 30.04 in 10.0 mi NNE 9.2 mph - N/A Thunderstorm Thunderstorm
8:55 PM 88.7 °F - 50.0 °F 26% 30.07 in 10.0 mi North 8.1 mph - N/A   Clear
9:15 PM 88.0 °F - 49.5 °F 26% 30.06 in 10.0 mi NNE 16.1 mph - N/A   Scattered Clouds
9:35 PM 87.8 °F - 52.2 °F 29% 30.07 in 10.0 mi NE 15.0 mph - N/A Thunderstorm Clear
9:55 PM 86.4 °F 84.4 °F 53.6 °F 32% 30.07 in 10.0 mi ENE 16.1 mph - N/A   Clear
10:15 PM 85.3 °F 83.8 °F 54.9 °F 35% 30.08 in 10.0 mi East 12.7 mph - N/A   Clear
10:35 PM 84.4 °F 83.5 °F 56.7 °F 39% 30.08 in 10.0 mi East 20.7 mph 25.3 mph N/A   Clear
10:55 PM 82.8 °F 82.5 °F 58.3 °F 43% 30.09 in 10.0 mi ENE 18.4 mph - N/A   Clear
11:35 PM 80.8 °F 81.4 °F 60.1 °F 49% 30.11 in 10.0 mi ENE 20.7 mph 26.5 mph N/A   Clear
11:55 PM 79.3 °F - 60.1 °F 52% 30.11 in 10.0 mi East 18.4 mph - N/A   Clear